Weather History for LFKC - December, 2012

Change the Weather History Date:

Sunday, December 23, 2012

  Actual Average Record
Temperature  
Mean Temperature 64 °F -  
Max Temperature 68 °F 54 °F 68 °F (2012)
Min Temperature 59 °F 42 °F 28 °F (1999)
Degree Days  
Heating Degree Days 2    
Growing Degree Days 14 (Base 50)    
Moisture  
Dew Point 48 °F    
Average Humidity 58    
Maximum Humidity 67    
Minimum Humidity 43    
Precipitation  
Precipitation 0.00 in - - ()
Sea Level Pressure  
Sea Level Pressure 30.08 in    
Wind  
Wind Speed 13 mph ()    
Max Wind Speed 22 mph    
Max Gust Speed 36 mph    
Visibility 6.2 miles    
Events      
Averages and records for this station are not official NWS values.
T = Trace of Precipitation, MM = Missing Value Source: Averaged Metar Reports

Daily Weather History Graph

Daily Weather History Graph

Search for Another Location

Airport or City:

Trip Planner

Search our weather history database for the weather conditions in past years. The results will help you decide how hot, cold, wet, or windy it might be!

Date:

Astronomy

Dec. 23, 2012 Rise Set
Actual Time 7:52 AM CET 4:55 PM CET
Civil Twilight 7:20 AM CET 5:28 PM CET
Nautical Twilight 6:44 AM CET 6:03 PM CET
Astronomical Twilight 6:10 AM CET 6:37 PM CET
Moon 1:39 PM CET (12/23) 3:16 AM CET (12/23)
Length of Visible Light 10h 07m
Length of Day
9h 03m
Waxing Gibbous, 79% of the Moon is Illuminated
Dec 23
Waxing Gibbous
Dec 28
Full
Jan 5
Last Quarter
Jan 11
New
Jan 19
First Quarter

Hourly Weather History & Observations

Time (CET) Temp. Dew Point Humidity Pressure Visibility Wind Dir Wind Speed Gust Speed Precip Events Conditions
6:45 AM 59.0 °F 46.4 °F 63% 30.09 in 6.2 mi South 15.0 mph - N/A   Overcast
7:00 AM 59.0 °F 48.2 °F 67% 30.09 in 6.2 mi South 15.0 mph - N/A   Overcast
7:30 AM 59.0 °F 48.2 °F 67% 30.09 in 6.2 mi South 13.8 mph - N/A   Mostly Cloudy
8:00 AM 59.0 °F 48.2 °F 67% 30.09 in 6.2 mi SSW 15.0 mph - N/A   Mostly Cloudy
8:30 AM 60.8 °F 48.2 °F 63% 30.09 in 6.2 mi South 15.0 mph - N/A   Mostly Cloudy
9:00 AM 60.8 °F 48.2 °F 63% 30.09 in 6.2 mi South 13.8 mph - N/A   Overcast
9:30 AM 60.8 °F 48.2 °F 63% 30.09 in 6.2 mi South 13.8 mph - N/A   Overcast
10:00 AM 60.8 °F 48.2 °F 63% 30.12 in 6.2 mi South 15.0 mph - N/A   Overcast
10:30 AM 62.6 °F 48.2 °F 59% 30.12 in 6.2 mi South 10.4 mph - N/A   Overcast
11:00 AM 62.6 °F 48.2 °F 59% 30.09 in 6.2 mi SSW 18.4 mph - N/A   Overcast
11:30 AM 64.4 °F 48.2 °F 56% 30.12 in 6.2 mi SSW 17.3 mph - N/A   Overcast
12:00 PM 64.4 °F 48.2 °F 56% 30.09 in 6.2 mi SSW 19.6 mph 34.5 mph N/A   Overcast
12:30 PM 64.4 °F 48.2 °F 56% 30.06 in 6.2 mi SSW 20.7 mph 33.4 mph N/A   Overcast
1:00 PM 64.4 °F 48.2 °F 56% 30.06 in 6.2 mi SSW 18.4 mph 33.4 mph N/A   Overcast
1:30 PM 66.2 °F 48.2 °F 52% 30.06 in - SW 21.9 mph 35.7 mph N/A   Clear
2:00 PM 66.2 °F 48.2 °F 52% 30.04 in - SSW 15.0 mph - N/A   Clear
2:30 PM 66.2 °F 46.4 °F 49% 30.04 in - SSW 16.1 mph 28.8 mph N/A   Clear
3:00 PM 66.2 °F 46.4 °F 49% 30.04 in - SSW 17.3 mph - N/A   Clear
3:30 PM 68.0 °F 44.6 °F 43% 30.04 in - SW 8.1 mph - N/A   Clear
4:00 PM 66.2 °F 44.6 °F 46% 30.06 in - SW 10.4 mph - N/A   Clear
4:30 PM 62.6 °F 46.4 °F 55% 30.06 in - SSW 9.2 mph - N/A   Clear
5:00 PM 62.6 °F 48.2 °F 59% 30.06 in - SSW 11.5 mph - N/A   Clear
5:30 PM 59.0 °F 48.2 °F 67% 30.09 in - South 9.2 mph - N/A   Clear